FW2487 Weather Reports


Display with metric or nautical units.
time (UTC)temp
F
wind
direction
speed
MPH
gust
MPH
rain 1hr
in
rain 24hr
in
rain mn
in
humidity
%
barometer
mb
20260901040029 59 168 5.0 6.0 0.00 0.00 0.00 69 1009.6
20260901034532 60 159 5.0 6.0 0.00 0.00 0.00 67 1009.5
20260901033033 62 156 4.0 5.0 0.00 0.00 0.00 65 1009.3
20260901031533 64 157 3.0 5.0 0.00 0.00 0.00 62 1009.3
20260901030032 64 185 3.0 6.0 0.00 0.00 0.00 62 1009.1
20260901024645 65 162 5.0 7.0 0.00 0.00 0.00 61 1009.0
20260901021607 67 166 4.0 6.0 0.00 0.00 0.00 58 1008.8
20260901020032 69 163 4.0 5.0 0.00 0.00 0.00 53 1008.7
20260901014529 74 238 2.0 4.0 0.00 0.00 0.00 41 1008.6
20260901011529 80 280 3.0 8.0 0.00 0.00 0.00 31 1008.6
20260901010030 81 287 3.0 10.0 0.00 0.00 0.00 31 1008.6
20260901004529 81 295 2.0 7.0 0.00 0.00 0.00 31 1008.8
20260901003033 81 305 3.0 11.0 0.00 0.00 0.00 30 1008.8
20260901001529 81 339 6.0 12.0 0.00 0.00 0.00 31 1008.8
20260901000031 81 348 6.0 12.0 0.00 0.00 0.00 31 1008.9
20260831234531 81 325 4.0 13.0 0.00 0.00 0.00 31 1009.0
20260831233107 81 2 7.0 14.0 0.00 0.00 0.00 31 1009.1
20260831231531 80 334 5.0 11.0 0.00 0.00 0.00 34 1009.2
20260831230104 81 329 5.0 10.0 0.00 0.00 0.00 34 1009.4
20260831224529 81 337 6.0 11.0 0.00 0.00 0.00 34 1009.6
20260831223109 81 359 6.0 14.0 0.00 0.00 0.00 33 1009.8
20260831221603 81 351 5.0 11.0 0.00 0.00 0.00 34 1010.0
20260831220030 80 349 6.0 11.0 0.00 0.00 0.00 34 1010.1
20260831214530 80 15 9.0 17.0 0.00 0.00 0.00 36 1010.3
20260831213147 79 359 8.0 14.0 0.00 0.00 0.00 36 1010.5
20260831211534 79 343 8.0 15.0 0.00 0.00 0.00 36 1010.6
20260831210029 78 341 6.0 13.0 0.00 0.00 0.00 37 1010.7
20260831201603 77 6 9.0 15.0 0.00 0.00 0.00 37 1011.5
20260831200026 77 11 10.0 19.0 0.00 0.00 0.00 38 1011.6
20260831194532 77 12 9.0 16.0 0.00 0.00 0.00 39 1011.8
20260831193030 75 14 9.0 22.0 0.00 0.00 0.00 41 1012.0
20260831191531 74 348 8.0 15.0 0.00 0.00 0.00 42 1012.4
20260831190031 72 343 7.0 11.0 0.00 0.00 0.00 45 1012.7
20260831184530 71 334 7.0 14.0 0.00 0.00 0.00 46 1012.9
20260831183031 71 331 6.0 12.0 0.00 0.00 0.00 46 1013.2
20260831181531 70 303 3.0 9.0 0.00 0.00 0.00 49 1013.4
20260831180029 69 274 2.0 6.0 0.00 0.00 0.00 52 1013.7
20260831174605 68 274 2.0 4.0 0.00 0.00 0.00 54 1013.8
20260831171532 67 260 1.0 4.0 0.00 0.00 0.00 54 1014.2
20260831170031 66 91 0.0 2.0 0.00 0.00 0.00 57 1014.4
20260831164530 65 69 0.0 2.0 0.00 0.00 0.00 59 1014.6
20260831163105 63 67 0.0 1.0 0.00 0.00 0.00 60 1014.8
20260831161537 62 67 0.0 1.0 0.00 0.00 0.00 68 1014.9
20260831160028 60 67 0.0 2.0 0.00 0.00 0.00 77 1015.1
20260831154606 57 67 1.0 2.0 0.00 0.00 0.00 84 1015.1
20260831153028 55 120 0.0 2.0 0.00 0.00 0.00 87 1015.1
20260831151645 52 135 0.0 0.0 0.00 0.00 0.00 90 1015.2
20260831150030 49 135 0.0 1.0 0.00 0.00 0.00 92 1015.1
20260831144532 46 142 1.0 3.0 0.00 0.00 0.00 93 1015.0
20260831143106 44 149 2.0 4.0 0.00 0.00 0.00 94 1014.8
20260831141533 42 149 2.0 4.0 0.00 0.00 0.00 100 1014.7
20260831140031 42 157 1.0 3.0 0.00 0.00 0.00 100 1014.6
20260831134533 42 157 1.0 3.0 0.00 0.00 0.00 100 1014.6
20260831133033 42 157 2.0 3.0 0.00 0.00 0.00 100 1014.6
20260831131607 42 157 3.0 4.0 0.00 0.00 0.00 100 1014.6
20260831130030 42 157 3.0 4.0 0.00 0.00 0.00 92 1014.7
20260831124530 43 156 3.0 4.0 0.00 0.00 0.00 92 1014.6
20260831123028 43 155 2.0 4.0 0.00 0.00 0.00 91 1014.6
20260831121529 43 157 3.0 5.0 0.00 0.00 0.00 91 1014.6
20260831120030 43 157 2.0 5.0 0.00 0.00 0.00 91 1014.7
20260831114531 43 157 3.0 4.0 0.00 0.00 0.00 91 1014.7
20260831113031 44 157 2.0 4.0 0.00 0.00 0.00 91 1014.6
20260831111648 44 141 2.0 4.0 0.00 0.00 0.00 90 1014.7
20260831104530 45 157 2.0 4.0 0.00 0.00 0.00 90 1014.7
20260831103028 45 122 1.0 3.0 0.00 0.00 0.00 90 1014.8
20260831101530 45 155 3.0 4.0 0.00 0.00 0.00 90 1014.9
20260831100029 45 147 2.0 5.0 0.00 0.00 0.00 90 1015.0
20260831093107 45 150 3.0 4.0 0.00 0.00 0.00 89 1015.2
20260831090032 46 155 2.0 5.0 0.00 0.00 0.00 89 1015.4
20260831084530 46 164 2.0 5.0 0.00 0.00 0.00 88 1015.5
20260831083103 46 162 2.0 4.0 0.00 0.00 0.00 88 1015.6
20260831081645 47 154 2.0 3.0 0.00 0.00 0.00 88 1015.8
20260831080030 47 150 2.0 4.0 0.00 0.00 0.00 87 1015.8
20260831074534 47 157 4.0 5.0 0.00 0.00 0.00 87 1015.8
20260831073030 48 170 3.0 5.0 0.00 0.00 0.00 87 1015.9
20260831071531 48 157 3.0 4.0 0.00 0.00 0.00 86 1016.0
20260831070108 48 157 2.0 3.0 0.00 0.00 0.00 85 1016.1
20260831064529 49 142 1.0 4.0 0.00 0.00 0.00 84 1016.1
20260831063030 50 135 0.0 1.0 0.00 0.00 0.00 83 1016.2
20260831060105 51 157 3.0 4.0 0.00 0.00 0.00 82 1016.3
20260831054531 51 158 3.0 5.0 0.00 0.00 0.00 81 1016.4
20260831053031 52 158 4.0 6.0 0.00 0.00 0.00 79 1016.5
20260831051646 52 160 3.0 4.0 0.00 0.00 0.00 79 1016.6
20260831044645 53 169 3.0 5.0 0.00 0.00 0.00 77 1016.7
20260831043030 54 168 4.0 5.0 0.00 0.00 0.00 75 1016.8
20260831041556 56 158 3.0 4.0 0.00 0.00 0.00 72 1016.8